| time (UTC) | temp F | wind direction | speed MPH | gust MPH | rain 1hr in | rain 24hr in | rain mn in | humidity % | barometer mb |
| 20260506091439 | 44 | 75 | 9.0 | 17.0 | 0.00 | 0.00 | 0.00 | 82 | 1011.1 |
| 20260506090936 | 44 | 82 | 15.0 | 17.0 | 0.00 | 0.00 | 0.00 | 82 | 1011.3 |
| 20260506090433 | 44 | 74 | 13.0 | 20.0 | 0.00 | 0.00 | 0.00 | 81 | 1011.1 |
| 20260506085930 | 44 | 78 | 15.0 | 20.0 | 0.00 | 0.00 | 0.00 | 80 | 1011.3 |
| 20260506085427 | 44 | 75 | 16.0 | 22.0 | 0.00 | 0.00 | 0.00 | 80 | 1011.3 |
| 20260506084923 | 44 | 69 | 15.0 | 19.0 | 0.00 | 0.00 | 0.00 | 79 | 1011.2 |
| 20260506084420 | 45 | 77 | 19.0 | 20.0 | 0.00 | 0.00 | 0.00 | 79 | 1011.1 |
| 20260506083916 | 45 | 97 | 16.0 | 20.0 | 0.00 | 0.00 | 0.00 | 79 | 1011.0 |
| 20260506083414 | 45 | 60 | 17.0 | 19.0 | 0.00 | 0.00 | 0.00 | 79 | 1011.1 |
| 20260506082911 | 45 | 66 | 13.0 | 17.0 | 0.00 | 0.00 | 0.00 | 79 | 1011.3 |
| 20260506082408 | 45 | 69 | 12.0 | 20.0 | 0.00 | 0.00 | 0.00 | 79 | 1011.1 |
| 20260506081903 | 45 | 76 | 13.0 | 21.0 | 0.00 | 0.00 | 0.00 | 79 | 1011.0 |
| 20260506081402 | 45 | 76 | 11.0 | 19.0 | 0.00 | 0.00 | 0.00 | 78 | 1010.9 |
| 20260506080859 | 45 | 73 | 17.0 | 20.0 | 0.00 | 0.00 | 0.00 | 78 | 1011.0 |
| 20260506080355 | 45 | 68 | 17.0 | 21.0 | 0.00 | 0.00 | 0.00 | 78 | 1010.9 |
| 20260506073339 | 44 | 82 | 11.0 | 20.0 | 0.00 | 0.00 | 0.00 | 79 | 1010.1 |
| 20260506072836 | 44 | 84 | 15.0 | 19.0 | 0.00 | 0.00 | 0.00 | 79 | 1010.2 |
| 20260506072334 | 44 | 72 | 14.0 | 17.0 | 0.00 | 0.00 | 0.00 | 80 | 1010.6 |
| 20260506071831 | 43 | 76 | 12.0 | 16.0 | 0.00 | 0.00 | 0.00 | 80 | 1010.5 |
| 20260506071330 | 43 | 70 | 12.0 | 15.0 | 0.00 | 0.00 | 0.00 | 81 | 1010.7 |
| 20260506070826 | 43 | 39 | 11.0 | 13.0 | 0.00 | 0.00 | 0.00 | 81 | 1011.5 |
| 20260506070323 | 43 | 41 | 9.0 | 14.0 | 0.00 | 0.00 | 0.00 | 81 | 1011.3 |
| 20260506062300 | 42 | 50 | 10.0 | 13.0 | 0.00 | 0.00 | 0.00 | 82 | 1010.8 |
| 20260506061756 | 42 | 56 | 11.0 | 16.0 | 0.00 | 0.00 | 0.00 | 81 | 1010.7 |
| 20260506061253 | 42 | 58 | 8.0 | 15.0 | 0.00 | 0.00 | 0.00 | 81 | 1010.8 |
| 20260506060751 | 42 | 55 | 12.0 | 14.0 | 0.00 | 0.00 | 0.00 | 80 | 1010.7 |
| 20260506060249 | 43 | 34 | 13.0 | 17.0 | 0.00 | 0.00 | 0.00 | 80 | 1010.7 |
| 20260506051220 | 44 | 68 | 15.0 | 21.0 | 0.00 | 0.00 | 0.00 | 76 | 1009.9 |
| 20260506050719 | 45 | 83 | 13.0 | 20.0 | 0.00 | 0.00 | 0.00 | 75 | 1009.7 |
| 20260506050215 | 45 | 86 | 16.0 | 19.0 | 0.00 | 0.00 | 0.00 | 74 | 1009.3 |
| 20260506044707 | 45 | 88 | 15.0 | 18.0 | 0.00 | 0.00 | 0.00 | 72 | 1009.6 |
| 20260506044203 | 45 | 87 | 8.0 | 17.0 | 0.00 | 0.00 | 0.00 | 72 | 1009.5 |
| 20260506043701 | 46 | 92 | 12.0 | 19.0 | 0.00 | 0.00 | 0.00 | 71 | 1009.3 |
| 20260506043158 | 46 | 83 | 11.0 | 17.0 | 0.00 | 0.00 | 0.00 | 71 | 1009.6 |
| 20260506042658 | 46 | 91 | 11.0 | 18.0 | 0.00 | 0.00 | 0.00 | 70 | 1009.2 |
| 20260506042155 | 46 | 93 | 15.0 | 22.0 | 0.00 | 0.00 | 0.00 | 69 | 1009.2 |
| 20260506041653 | 46 | 79 | 11.0 | 18.0 | 0.00 | 0.00 | 0.00 | 69 | 1009.5 |
| 20260506041149 | 47 | 85 | 12.0 | 20.0 | 0.00 | 0.00 | 0.00 | 68 | 1009.6 |
| 20260506040647 | 47 | 85 | 14.0 | 19.0 | 0.00 | 0.00 | 0.00 | 67 | 1009.5 |
| 20260506040138 | 47 | 89 | 11.0 | 20.0 | 0.00 | 0.00 | 0.00 | 67 | 1009.3 |
| 20260506035636 | 47 | 97 | 14.0 | 18.0 | 0.00 | 0.00 | 0.00 | 66 | 1009.5 |
| 20260506035132 | 47 | 88 | 11.0 | 21.0 | 0.00 | 0.00 | 0.00 | 65 | 1009.3 |
| 20260506034629 | 48 | 80 | 11.0 | 17.0 | 0.00 | 0.00 | 0.00 | 65 | 1009.7 |
| 20260506034126 | 48 | 80 | 11.0 | 19.0 | 0.00 | 0.00 | 0.00 | 65 | 1009.2 |
| 20260506033623 | 48 | 80 | 20.0 | 20.0 | 0.00 | 0.00 | 0.00 | 64 | 1009.1 |
| 20260506033120 | 48 | 69 | 18.0 | 20.0 | 0.00 | 0.00 | 0.00 | 64 | 1009.1 |
| 20260506032618 | 48 | 67 | 12.0 | 19.0 | 0.00 | 0.00 | 0.00 | 63 | 1009.2 |
| 20260506032114 | 49 | 63 | 12.0 | 17.0 | 0.00 | 0.00 | 0.00 | 63 | 1009.2 |
| 20260506031611 | 49 | 76 | 12.0 | 18.0 | 0.00 | 0.00 | 0.00 | 62 | 1008.9 |
| 20260506031108 | 50 | 81 | 13.0 | 17.0 | 0.00 | 0.00 | 0.00 | 61 | 1008.7 |
| 20260506030607 | 50 | 76 | 13.0 | 17.0 | 0.00 | 0.00 | 0.00 | 61 | 1009.0 |
| 20260506030104 | 50 | 94 | 16.0 | 21.0 | 0.00 | 0.00 | 0.00 | 60 | 1008.8 |
| 20260506025601 | 50 | 78 | 15.0 | 19.0 | 0.00 | 0.00 | 0.00 | 60 | 1008.7 |
| 20260506025056 | 50 | 77 | 9.0 | 17.0 | 0.00 | 0.00 | 0.00 | 59 | 1008.5 |
| 20260506024554 | 51 | 83 | 12.0 | 17.0 | 0.00 | 0.00 | 0.00 | 59 | 1008.6 |
| 20260506024050 | 51 | 81 | 9.0 | 18.0 | 0.00 | 0.00 | 0.00 | 58 | 1008.6 |
| 20260506023546 | 51 | 97 | 15.0 | 21.0 | 0.00 | 0.00 | 0.00 | 58 | 1008.6 |
| 20260506023044 | 51 | 75 | 14.0 | 21.0 | 0.00 | 0.00 | 0.00 | 57 | 1008.2 |
| 20260506022541 | 51 | 91 | 11.0 | 20.0 | 0.00 | 0.00 | 0.00 | 56 | 1008.1 |
| 20260506022039 | 52 | 85 | 17.0 | 21.0 | 0.00 | 0.00 | 0.00 | 56 | 1008.0 |
| 20260506021536 | 52 | 70 | 14.0 | 20.0 | 0.00 | 0.00 | 0.00 | 55 | 1008.0 |
| 20260506021033 | 52 | 70 | 16.0 | 20.0 | 0.00 | 0.00 | 0.00 | 55 | 1008.3 |
| 20260506020531 | 53 | 62 | 15.0 | 26.0 | 0.00 | 0.00 | 0.00 | 54 | 1008.1 |
| 20260506020028 | 53 | 60 | 14.0 | 21.0 | 0.00 | 0.00 | 0.00 | 54 | 1008.2 |
| 20260506015525 | 53 | 51 | 15.0 | 25.0 | 0.00 | 0.00 | 0.00 | 53 | 1008.0 |
| 20260506015022 | 54 | 49 | 13.0 | 22.0 | 0.00 | 0.00 | 0.00 | 52 | 1008.1 |
| 20260506014519 | 54 | 29 | 17.0 | 22.0 | 0.00 | 0.00 | 0.00 | 52 | 1008.2 |
| 20260506014015 | 54 | 35 | 13.0 | 21.0 | 0.00 | 0.00 | 0.00 | 52 | 1008.1 |
| 20260506013514 | 55 | 39 | 17.0 | 21.0 | 0.00 | 0.00 | 0.00 | 51 | 1008.0 |
| 20260506013010 | 55 | 53 | 15.0 | 23.0 | 0.00 | 0.00 | 0.00 | 51 | 1007.8 |
| 20260506012506 | 55 | 51 | 14.0 | 21.0 | 0.00 | 0.00 | 0.00 | 50 | 1007.3 |
| 20260506012003 | 55 | 61 | 17.0 | 21.0 | 0.00 | 0.00 | 0.00 | 50 | 1007.4 |
| 20260506011501 | 55 | 38 | 13.0 | 23.0 | 0.00 | 0.00 | 0.00 | 50 | 1007.3 |
| 20260506010957 | 56 | 39 | 20.0 | 28.0 | 0.00 | 0.00 | 0.00 | 50 | 1007.2 |
| 20260506010456 | 56 | 52 | 14.0 | 20.0 | 0.00 | 0.00 | 0.00 | 50 | 1007.1 |
| 20260506005951 | 56 | 40 | 14.0 | 23.0 | 0.00 | 0.00 | 0.00 | 49 | 1006.8 |
| 20260506005450 | 56 | 39 | 11.0 | 24.0 | 0.00 | 0.00 | 0.00 | 49 | 1006.7 |
| 20260506004944 | 57 | 63 | 17.0 | 25.0 | 0.00 | 0.00 | 0.00 | 48 | 1006.7 |
| 20260506004443 | 57 | 40 | 11.0 | 25.0 | 0.00 | 0.00 | 0.00 | 48 | 1006.7 |
| 20260506003938 | 57 | 57 | 15.0 | 20.0 | 0.00 | 0.00 | 0.00 | 48 | 1006.6 |
| 20260506003435 | 57 | 52 | 22.0 | 28.0 | 0.00 | 0.00 | 0.00 | 47 | 1006.3 |
| 20260506002932 | 58 | 61 | 18.0 | 23.0 | 0.00 | 0.00 | 0.00 | 47 | 1006.6 |
| 20260506002428 | 58 | 63 | 20.0 | 22.0 | 0.00 | 0.00 | 0.00 | 46 | 1006.3 |
| 20260506001923 | 59 | 59 | 20.0 | 21.0 | 0.00 | 0.00 | 0.00 | 46 | 1006.2 |
| 20260506001421 | 59 | 61 | 15.0 | 23.0 | 0.00 | 0.00 | 0.00 | 45 | 1006.1 |
| 20260506000918 | 59 | 65 | 15.0 | 21.0 | 0.00 | 0.00 | 0.00 | 45 | 1006.6 |
| 20260506000416 | 59 | 71 | 17.0 | 20.0 | 0.00 | 0.00 | 0.00 | 45 | 1006.6 |
| 20260505235912 | 59 | 48 | 12.0 | 21.0 | 0.00 | 0.00 | 0.00 | 46 | 1006.4 |
| 20260505235410 | 59 | 62 | 16.0 | 22.0 | 0.00 | 0.00 | 0.00 | 46 | 1006.3 |
| 20260505234907 | 59 | 49 | 13.0 | 23.0 | 0.00 | 0.00 | 0.00 | 45 | 1006.3 |
| 20260505234404 | 60 | 71 | 15.0 | 20.0 | 0.00 | 0.00 | 0.00 | 44 | 1006.6 |
| 20260505233901 | 60 | 48 | 16.0 | 20.0 | 0.00 | 0.00 | 0.00 | 44 | 1006.7 |
| 20260505233359 | 60 | 54 | 19.0 | 19.0 | 0.00 | 0.00 | 0.00 | 44 | 1006.7 |
| 20260505232856 | 60 | 66 | 12.0 | 24.0 | 0.00 | 0.00 | 0.00 | 43 | 1006.4 |
| 20260505232354 | 60 | 70 | 14.0 | 17.0 | 0.00 | 0.00 | 0.00 | 43 | 1006.4 |
| 20260505231850 | 61 | 63 | 12.0 | 20.0 | 0.00 | 0.00 | 0.00 | 43 | 1006.2 |
| 20260505231348 | 60 | 67 | 14.0 | 23.0 | 0.00 | 0.00 | 0.00 | 44 | 1006.4 |
| 20260505230846 | 61 | 62 | 13.0 | 17.0 | 0.00 | 0.00 | 0.00 | 43 | 1006.7 |
| 20260505230343 | 60 | 64 | 13.0 | 23.0 | 0.00 | 0.00 | 0.00 | 44 | 1006.4 |
| 20260505225839 | 61 | 80 | 13.0 | 16.0 | 0.00 | 0.00 | 0.00 | 43 | 1006.8 |
| 20260505225337 | 60 | 64 | 13.0 | 14.0 | 0.00 | 0.00 | 0.00 | 44 | 1006.6 |
| 20260505224831 | 60 | 62 | 11.0 | 15.0 | 0.00 | 0.00 | 0.00 | 44 | 1006.9 |
| 20260505224330 | 60 | 38 | 14.0 | 17.0 | 0.00 | 0.00 | 0.00 | 44 | 1006.8 |
| 20260505223826 | 60 | 64 | 14.0 | 22.0 | 0.00 | 0.00 | 0.00 | 44 | 1006.7 |
| 20260505223324 | 61 | 63 | 13.0 | 20.0 | 0.00 | 0.00 | 0.00 | 43 | 1006.8 |
| 20260505222819 | 60 | 58 | 9.0 | 19.0 | 0.00 | 0.00 | 0.00 | 43 | 1007.0 |
| 20260505222315 | 61 | 60 | 12.0 | 15.0 | 0.00 | 0.00 | 0.00 | 43 | 1007.2 |
| 20260505221813 | 61 | 67 | 11.0 | 14.0 | 0.00 | 0.00 | 0.00 | 42 | 1006.9 |
| 20260505221309 | 61 | 55 | 12.0 | 16.0 | 0.00 | 0.00 | 0.00 | 42 | 1006.8 |
| 20260505220806 | 61 | 58 | 6.0 | 14.0 | 0.00 | 0.00 | 0.00 | 42 | 1007.0 |
| 20260505220303 | 61 | 71 | 12.0 | 20.0 | 0.00 | 0.00 | 0.00 | 42 | 1007.1 |
| 20260505215801 | 62 | 65 | 10.0 | 20.0 | 0.00 | 0.00 | 0.00 | 41 | 1006.9 |
| 20260505215259 | 62 | 65 | 11.0 | 12.0 | 0.00 | 0.00 | 0.00 | 42 | 1007.0 |
| 20260505214756 | 62 | 48 | 9.0 | 13.0 | 0.00 | 0.00 | 0.00 | 42 | 1007.2 |
| 20260505214254 | 62 | 54 | 9.0 | 15.0 | 0.00 | 0.00 | 0.00 | 41 | 1007.6 |
| 20260505213751 | 63 | 17 | 10.0 | 16.0 | 0.00 | 0.00 | 0.00 | 41 | 1007.7 |
| 20260505213249 | 63 | 11 | 5.0 | 12.0 | 0.00 | 0.00 | 0.00 | 42 | 1007.8 |
| 20260505212744 | 62 | 75 | 12.0 | 12.0 | 0.00 | 0.00 | 0.00 | 42 | 1007.9 |
| 20260505212242 | 62 | 25 | 11.0 | 16.0 | 0.00 | 0.00 | 0.00 | 42 | 1007.9 |
| 20260505211738 | 62 | 95 | 10.0 | 12.0 | 0.00 | 0.00 | 0.00 | 42 | 1008.0 |
| 20260505211236 | 61 | 46 | 7.0 | 12.0 | 0.00 | 0.00 | 0.00 | 42 | 1008.2 |
| 20260505210732 | 62 | 44 | 8.0 | 13.0 | 0.00 | 0.00 | 0.00 | 42 | 1008.2 |
| 20260505210229 | 62 | 72 | 7.0 | 11.0 | 0.00 | 0.00 | 0.00 | 41 | 1008.0 |
| 20260505205726 | 61 | 24 | 9.0 | 11.0 | 0.00 | 0.00 | 0.00 | 42 | 1008.1 |
| 20260505205224 | 61 | 39 | 12.0 | 15.0 | 0.00 | 0.00 | 0.00 | 42 | 1008.5 |
| 20260505204720 | 62 | 43 | 12.0 | 18.0 | 0.00 | 0.00 | 0.00 | 41 | 1008.0 |
| 20260505204219 | 61 | 67 | 8.0 | 16.0 | 0.00 | 0.00 | 0.00 | 42 | 1008.3 |
| 20260505203715 | 62 | 66 | 8.0 | 11.0 | 0.00 | 0.00 | 0.00 | 42 | 1008.3 |
| 20260505203212 | 60 | 58 | 12.0 | 18.0 | 0.00 | 0.00 | 0.00 | 43 | 1008.2 |
| 20260505202708 | 60 | 48 | 7.0 | 17.0 | 0.00 | 0.00 | 0.00 | 43 | 1008.7 |
| 20260505202204 | 60 | 79 | 6.0 | 14.0 | 0.00 | 0.00 | 0.00 | 43 | 1008.6 |
| 20260505201701 | 61 | 7 | 8.0 | 13.0 | 0.00 | 0.00 | 0.00 | 43 | 1008.5 |
| 20260505201159 | 60 | 46 | 9.0 | 11.0 | 0.00 | 0.00 | 0.00 | 43 | 1008.5 |
| 20260505200657 | 60 | 43 | 12.0 | 12.0 | 0.00 | 0.00 | 0.00 | 43 | 1008.6 |
| 20260505200153 | 60 | 21 | 8.0 | 17.0 | 0.00 | 0.00 | 0.00 | 43 | 1008.3 |
| 20260505195649 | 60 | 38 | 6.0 | 18.0 | 0.00 | 0.00 | 0.00 | 42 | 1008.3 |
| 20260505195147 | 61 | 35 | 16.0 | 21.0 | 0.00 | 0.00 | 0.00 | 42 | 1008.1 |
| 20260505194644 | 61 | 69 | 12.0 | 20.0 | 0.00 | 0.00 | 0.00 | 42 | 1008.0 |
| 20260505194140 | 61 | 13 | 9.0 | 16.0 | 0.00 | 0.00 | 0.00 | 44 | 1008.3 |
| 20260505193637 | 60 | 23 | 9.0 | 18.0 | 0.00 | 0.00 | 0.00 | 44 | 1008.5 |
| 20260505193134 | 61 | 23 | 8.0 | 26.0 | 0.00 | 0.00 | 0.00 | 43 | 1008.5 |
| 20260505192632 | 60 | 19 | 11.0 | 16.0 | 0.00 | 0.00 | 0.00 | 44 | 1008.7 |
| 20260505192129 | 60 | 20 | 6.0 | 17.0 | 0.00 | 0.00 | 0.00 | 44 | 1008.6 |
| 20260505191628 | 60 | 60 | 9.0 | 14.0 | 0.00 | 0.00 | 0.00 | 43 | 1008.5 |
| 20260505191125 | 60 | 347 | 7.0 | 16.0 | 0.00 | 0.00 | 0.00 | 44 | 1008.5 |
| 20260505190621 | 60 | 13 | 11.0 | 20.0 | 0.00 | 0.00 | 0.00 | 43 | 1008.8 |
| 20260505190116 | 60 | 14 | 15.0 | 22.0 | 0.00 | 0.00 | 0.00 | 43 | 1008.6 |
| 20260505185613 | 59 | 1 | 13.0 | 19.0 | 0.00 | 0.00 | 0.00 | 45 | 1008.9 |
| 20260505185109 | 59 | 52 | 15.0 | 20.0 | 0.00 | 0.00 | 0.00 | 44 | 1008.8 |
| 20260505184606 | 58 | 40 | 13.0 | 20.0 | 0.00 | 0.00 | 0.00 | 45 | 1008.9 |
| 20260505184103 | 59 | 33 | 9.0 | 21.0 | 0.00 | 0.00 | 0.00 | 44 | 1008.7 |
| 20260505183559 | 59 | 1 | 13.0 | 21.0 | 0.00 | 0.00 | 0.00 | 44 | 1008.8 |
| 20260505183057 | 59 | 0 | 9.0 | 17.0 | 0.00 | 0.00 | 0.00 | 45 | 1008.5 |
| 20260505182553 | 59 | 34 | 12.0 | 22.0 | 0.00 | 0.00 | 0.00 | 44 | 1008.6 |
| 20260505182050 | 59 | 22 | 14.0 | 20.0 | 0.00 | 0.00 | 0.00 | 44 | 1008.7 |
| 20260505181547 | 59 | 29 | 17.0 | 22.0 | 0.00 | 0.00 | 0.00 | 44 | 1008.8 |
| 20260505181044 | 58 | 21 | 14.0 | 25.0 | 0.00 | 0.00 | 0.00 | 46 | 1008.9 |
| 20260505180540 | 59 | 1 | 16.0 | 24.0 | 0.00 | 0.00 | 0.00 | 47 | 1008.9 |
| 20260505180038 | 59 | 30 | 11.0 | 20.0 | 0.00 | 0.00 | 0.00 | 44 | 1008.7 |
| 20260505175538 | 58 | 17 | 12.0 | 28.0 | 0.00 | 0.00 | 0.00 | 45 | 1009.0 |
| 20260505175035 | 59 | 0 | 9.0 | 22.0 | 0.00 | 0.00 | 0.00 | 45 | 1008.9 |
| 20260505174532 | 60 | 6 | 20.0 | 22.0 | 0.00 | 0.00 | 0.00 | 43 | 1008.8 |
| 20260505174028 | 58 | 37 | 12.0 | 20.0 | 0.00 | 0.00 | 0.00 | 45 | 1009.0 |
| 20260505173525 | 58 | 6 | 11.0 | 19.0 | 0.00 | 0.00 | 0.00 | 46 | 1008.9 |
| 20260505173022 | 57 | 324 | 9.0 | 20.0 | 0.00 | 0.00 | 0.00 | 47 | 1008.9 |
| 20260505172520 | 58 | 4 | 14.0 | 22.0 | 0.00 | 0.00 | 0.00 | 46 | 1008.9 |
| 20260505172015 | 59 | 4 | 13.0 | 19.0 | 0.00 | 0.00 | 0.00 | 45 | 1008.7 |
| 20260505171511 | 58 | 26 | 17.0 | 26.0 | 0.00 | 0.00 | 0.00 | 46 | 1008.8 |
| 20260505171008 | 57 | 7 | 16.0 | 22.0 | 0.00 | 0.00 | 0.00 | 47 | 1008.8 |
| 20260505170504 | 59 | 40 | 11.0 | 18.0 | 0.00 | 0.00 | 0.00 | 47 | 1008.7 |
| 20260505170000 | 58 | 14 | 19.0 | 22.0 | 0.00 | 0.00 | 0.00 | 46 | 1008.8 |
| 20260505165456 | 57 | 17 | 12.0 | 22.0 | 0.00 | 0.00 | 0.00 | 47 | 1008.7 |
| 20260505164952 | 58 | 8 | 9.0 | 22.0 | 0.00 | 0.00 | 0.00 | 48 | 1008.8 |
| 20260505164448 | 58 | 18 | 7.0 | 18.0 | 0.00 | 0.00 | 0.00 | 47 | 1008.9 |
| 20260505163946 | 58 | 10 | 12.0 | 18.0 | 0.00 | 0.00 | 0.00 | 47 | 1008.8 |
| 20260505163445 | 57 | 11 | 12.0 | 22.0 | 0.00 | 0.00 | 0.00 | 47 | 1008.8 |
| 20260505162944 | 58 | 6 | 12.0 | 23.0 | 0.00 | 0.00 | 0.00 | 48 | 1008.7 |
| 20260505162439 | 57 | 22 | 14.0 | 27.0 | 0.00 | 0.00 | 0.00 | 48 | 1008.9 |
| 20260505161936 | 58 | 13 | 18.0 | 23.0 | 0.00 | 0.00 | 0.00 | 48 | 1008.8 |
| 20260505161433 | 57 | 22 | 14.0 | 22.0 | 0.00 | 0.00 | 0.00 | 48 | 1008.7 |
| 20260505160930 | 57 | 15 | 13.0 | 21.0 | 0.00 | 0.00 | 0.00 | 50 | 1008.5 |
| 20260505160429 | 56 | 24 | 17.0 | 31.0 | 0.00 | 0.00 | 0.00 | 50 | 1008.2 |
| 20260505152904 | 56 | 9 | 14.0 | 23.0 | 0.00 | 0.00 | 0.00 | 50 | 1008.2 |
| 20260505152356 | 55 | 12 | 20.0 | 24.0 | 0.00 | 0.00 | 0.00 | 48 | 1008.0 |
| 20260505151855 | 55 | 10 | 11.0 | 20.0 | 0.00 | 0.00 | 0.00 | 49 | 1008.0 |
| 20260505151352 | 56 | 11 | 10.0 | 20.0 | 0.00 | 0.00 | 0.00 | 49 | 1007.7 |
| 20260505150849 | 56 | 18 | 12.0 | 24.0 | 0.00 | 0.00 | 0.00 | 49 | 1007.4 |
| 20260505150347 | 56 | 8 | 15.0 | 26.0 | 0.00 | 0.00 | 0.00 | 48 | 1007.2 |
| 20260505140311 | 54 | 1 | 13.0 | 21.0 | 0.00 | 0.00 | 0.00 | 49 | 1007.6 |
| 20260505130229 | 52 | 1 | 13.0 | 20.0 | 0.00 | 0.00 | 0.00 | 54 | 1005.7 |
| 20260505124719 | 52 | 6 | 15.0 | 25.0 | 0.00 | 0.00 | 0.00 | 53 | 1005.6 |
| 20260505124216 | 52 | 3 | 10.0 | 20.0 | 0.00 | 0.00 | 0.00 | 54 | 1005.4 |
| 20260505123711 | 52 | 0 | 12.0 | 30.0 | 0.00 | 0.00 | 0.00 | 54 | 1005.6 |
| 20260505123208 | 53 | 354 | 15.0 | 23.0 | 0.00 | 0.00 | 0.00 | 54 | 1005.3 |
| 20260505122704 | 53 | 1 | 12.0 | 18.0 | 0.00 | 0.00 | 0.00 | 54 | 1005.1 |
| 20260505122201 | 53 | 316 | 9.0 | 16.0 | 0.00 | 0.00 | 0.00 | 55 | 1005.1 |
| 20260505121653 | 54 | 358 | 7.0 | 17.0 | 0.00 | 0.00 | 0.00 | 54 | 1005.3 |
| 20260505121149 | 54 | 3 | 15.0 | 23.0 | 0.00 | 0.00 | 0.00 | 54 | 1005.1 |
| 20260505120646 | 54 | 358 | 13.0 | 14.0 | 0.00 | 0.00 | 0.00 | 55 | 1005.0 |
| 20260505120141 | 54 | 11 | 8.0 | 16.0 | 0.00 | 0.00 | 0.00 | 56 | 1004.8 |
| 20260505115635 | 54 | 339 | 6.0 | 18.0 | 0.00 | 0.00 | 0.00 | 56 | 1004.8 |
| 20260505115134 | 54 | 358 | 15.0 | 21.0 | 0.00 | 0.00 | 0.00 | 57 | 1004.8 |
| 20260505114630 | 54 | 0 | 8.0 | 17.0 | 0.00 | 0.00 | 0.00 | 57 | 1004.6 |
| 20260505114127 | 54 | 345 | 9.0 | 20.0 | 0.00 | 0.00 | 0.00 | 57 | 1004.4 |
| 20260505113623 | 54 | 353 | 13.0 | 17.0 | 0.00 | 0.00 | 0.00 | 57 | 1004.3 |
| 20260505113120 | 54 | 349 | 8.0 | 18.0 | 0.00 | 0.00 | 0.00 | 57 | 1004.3 |
| 20260505112616 | 55 | 342 | 10.0 | 20.0 | 0.00 | 0.00 | 0.00 | 57 | 1004.6 |
| 20260505112114 | 55 | 353 | 11.0 | 19.0 | 0.00 | 0.00 | 0.00 | 57 | 1004.3 |
| 20260505111608 | 55 | 342 | 11.0 | 19.0 | 0.00 | 0.00 | 0.00 | 58 | 1004.6 |
| 20260505111104 | 55 | 333 | 9.0 | 21.0 | 0.00 | 0.00 | 0.00 | 57 | 1004.2 |
| 20260505110601 | 55 | 3 | 9.0 | 20.0 | 0.00 | 0.00 | 0.00 | 58 | 1004.1 |
| 20260505102033 | 59 | 321 | 11.0 | 24.0 | 0.00 | 0.00 | 0.00 | 52 | 1004.0 |
| 20260505101532 | 59 | 321 | 16.0 | 26.0 | 0.00 | 0.00 | 0.00 | 51 | 1004.1 |
| 20260505101028 | 60 | 333 | 10.0 | 24.0 | 0.00 | 0.00 | 0.00 | 49 | 1003.8 |
| 20260505100525 | 61 | 322 | 17.0 | 30.0 | 0.00 | 0.00 | 0.00 | 44 | 1003.4 |
| 20260505100022 | 62 | 321 | 19.0 | 20.0 | 0.00 | 0.00 | 0.00 | 39 | 1003.1 |
| 20260505095518 | 63 | 325 | 17.0 | 30.0 | 0.00 | 0.00 | 0.00 | 35 | 1003.2 |
| 20260505095014 | 64 | 317 | 12.0 | 27.0 | 0.00 | 0.00 | 0.00 | 33 | 1002.8 |
| 20260505094511 | 65 | 317 | 18.0 | 25.0 | 0.00 | 0.00 | 0.00 | 30 | 1002.8 |
| 20260505094007 | 66 | 320 | 27.0 | 27.0 | 0.00 | 0.00 | 0.00 | 27 | 1002.4 |
| 20260505093503 | 67 | 316 | 11.0 | 25.0 | 0.00 | 0.00 | 0.00 | 26 | 1002.3 |
| 20260505093001 | 68 | 300 | 13.0 | 22.0 | 0.00 | 0.00 | 0.00 | 25 | 1002.2 |
| 20260505092458 | 68 | 316 | 7.0 | 17.0 | 0.00 | 0.00 | 0.00 | 26 | 1002.1 |
| 20260505091956 | 66 | 312 | 7.0 | 12.0 | 0.00 | 0.00 | 0.00 | 29 | 1002.1 |